Location: Moscow
(30.9132°N, 94.8252°W)
Time: 11:42:41
(UTC+00:00)

FengYun 1-2 T - Pass Details

Date: 15 November 2025
Orbit: 845 x 879 km, 98.8° (Epoch: 11 December)

Event Time Altitude Azimuth Distance (km) Brightness Sun altitude
Rises 10:43:54 0° 15° (NNE) 3,450 7.5 -26.2°
Reaches altitude 10° 10:46:18 10° 18° (NNE) 2,515 6.8 -25.7°
Maximum altitude 10:51:53 71° 102° (ESE) 919 4.4 -24.5°
Drops below altitude 10° 10:57:28 10° 186° (S) 2,519 6.7 -23.4°
Sets 10:59:52 0° 189° (S) 3,456 7.4 -22.8°
